This is the latest recevied weather packets stored in our database for station/object KB1WCR. If no packets are shown the sender has not sent any weather packets the latest 10 day(s).
| Time | Temp. | Humidity | Pressure | Rain* | Wind** | Luminosity | Snow |
|---|---|---|---|---|---|---|---|
| 1778030909 | 17.22° C | 73% | 1008.4 hPa | 0 mm | - | 0 W/m² | - |
| 1778030606 | 17.22° C | 74% | 1008.3 hPa | 0 mm | - | 0 W/m² | - |
| 1778030304 | 17.22° C | 76% | 1008.2 hPa | 0 mm | - | 0 W/m² | - |
| 1778030000 | 17.22° C | 74% | 1008.3 hPa | 0 mm | - | 0 W/m² | - |
| 1778029698 | 17.22° C | 74% | 1008.1 hPa | 0 mm | - | 0 W/m² | - |
| 1778029395 | 17.22° C | 74% | 1008.1 hPa | 0 mm | - | 0 W/m² | - |
| 1778029092 | 17.78° C | 73% | 1007.9 hPa | 0 mm | - | 0 W/m² | - |
| 1778028789 | 17.78° C | 73% | 1007.9 hPa | 0 mm | - | 0 W/m² | - |
| 1778028485 | 17.78° C | 72% | 1007.8 hPa | 0 mm | - | 0 W/m² | - |
| 1778028183 | 17.78° C | 72% | 1007.9 hPa | 0 mm | - | 0 W/m² | - |
| 1778027878 | 17.78° C | 74% | 1007.9 hPa | 0 mm | - | 0 W/m² | - |
| 1778027575 | 18.33° C | 71% | 1007.8 hPa | 0 mm | - | 0 W/m² | - |
| 1778027271 | 18.33° C | 71% | 1007.9 hPa | 0 mm | - | 0 W/m² | - |
| 1778026968 | 18.89° C | 71% | 1007.6 hPa | 0 mm | - | 0 W/m² | - |
| 1778026663 | 18.89° C | 71% | 1007.5 hPa | 0 mm | - | 0 W/m² | - |
| 1778026361 | 18.89° C | 70% | 1007 hPa | 0 mm | - | 0 W/m² | - |
| 1778026058 | 18.89° C | 69% | 1007 hPa | 0 mm | - | 0 W/m² | - |
| 1778025755 | 18.89° C | 71% | 1006.7 hPa | 0 mm | - | 0 W/m² | - |
| 1778025452 | 18.89° C | 73% | 1006.1 hPa | 0 mm | - | 1 W/m² | - |
| 1778025150 | 19.44° C | 73% | 1006.2 hPa | 0 mm | - | 1 W/m² | - |
| 1778024847 | 19.44° C | 72% | 1006.4 hPa | 0 mm | - | 3 W/m² | - |
| 1778024544 | 20° C | 71% | 1005.8 hPa | 0 mm | - | 6 W/m² | - |
| 1778024240 | 20.56° C | 67% | 1005.9 hPa | 0 mm | - | 13 W/m² | - |
| 1778023939 | 20.56° C | 65% | 1005.9 hPa | 0 mm | - | 8 W/m² | - |
| 1778023635 | 20.56° C | 65% | 1006.2 hPa | 0 mm | - | 12 W/m² | - |
* Rain latest hour (hover to see other rain measurements)
** Current wind speed in m/s (hover to see current wind gust speed)